User: anonymous   Login
Location: Bailleul
(50.3375°N, 2.8513°E)
Time: 01:23:50
(UTC+00:00)
Language:

Terra - Orbit

View from above orbital plane
View from above orbital plane
View from above satellite
View from above satellite

Ground track
Ground track

The orbit data is extracted from the following two-line orbital elements,

1 25994U 99068A   21174.55461112  .00000065  00000-0  24429-4 0  9997
2 25994  98.1757 248.8667 0001353  90.5715  20.5461 14.57128750144230
Epoch (UTC): 23 June 2021 13:18:38
Eccentricity: 0.0001353
inclination: 98.1757°
perigee height: 701 km
apogee height: 703 km
right ascension of ascending node: 248.8667°
argument of perigee: 90.5715°
revolutions per day: 14.57128750
mean anomaly at epoch: 20.5461°
orbit number at epoch: 14423

The dashed part of the orbit path shows where the satellite is in the earth's shadow,  

DLR